This demonstration page uses our WeatherBlox Daily Observations layout. Learn more.

Left ArrowRight Arrow

44.8408, -93.29828

Hourly Observations for June 6, 2015

Temp ( °F °C ) Dew Point ( °F °C ) Humidity (%) Winds ( mph kmh ) Pressure ( in mb ) Visibility ( mi km ) Precip ( " mm )
12:53 am 00:53 Partly Cloudy 65 18.3 52 11.1 63 63 ESE 9 15 30.13 1020 10 16 0.00 0.00
1:53 am 01:53 Partly Cloudy 63 17.2 54 12.2 73 73 ESE 5 7 30.14 1021 10 16 0.00 0.00
2:53 am 02:53 Partly Cloudy 62 16.7 55 12.8 78 78 ESE 7 11 30.14 1021 10 16 0.00 0.00
3:53 am 03:53 Mostly Clear 60 15.6 55 12.8 84 84 ESE 8 13 30.13 1020 10 16 0.00 0.00
4:53 am 04:53 Partly Cloudy 60 15.6 55 12.8 84 84 ESE 7 11 30.13 1020 10 16 0.00 0.00
5:53 am 05:53 Mostly Cloudy 60 15.6 55 12.8 84 84 ESE 10 17 30.13 1020 10 16 0.00 0.00
6:53 am 06:53 Mostly Cloudy 61 16.1 53 11.7 75 75 SE 15 24 30.13 1020 10 16 0.00 0.00
7:53 am 07:53 Mostly Cloudy 62 16.7 53 11.7 73 73 SE 17 28 30.12 1020 10 16 0.00 0.00
8:53 am 08:53 Mostly Cloudy 64 17.8 53 11.7 68 68 SE 10 17 30.10 1019 10 16 0.00 0.00
9:53 am 09:53 Mostly Cloudy 66 18.9 50 10 56 56 SE 18 30 30.08 1019 10 16 0.00 0.00
10:53 am 10:53 Mostly Cloudy 67 19.4 49 9.4 53 53 SE 13 20 30.07 1018 10 16 0.00 0.00
11:53 am 11:53 Mostly Cloudy 71 21.7 51 10.6 49 49 SE 15 24 30.03 1017 10 16 0.00 0.00
12:53 pm 12:53 Mostly Cloudy 72 22.2 54 12.2 53 53 SE 16 26 30.00 1016 10 16 0.00 0.00
1:53 pm 13:53 Mostly Cloudy 75 23.9 56 13.3 52 52 SE 18 30 29.97 1015 10 16 0.00 0.00
2:53 pm 14:53 Mostly Cloudy 76 24.4 58 14.4 54 54 SE 14 22 29.93 1014 10 16 0.00 0.00
3:53 pm 15:53 Mostly Cloudy 76 24.4 58 14.4 54 54 SE 14 22 29.90 1012 10 16 0.00 0.00
4:53 pm 16:53 Mostly Cloudy 78 25.6 58 14.4 50 50 SSE 16 26 29.85 1011 10 16 0.00 0.00
5:53 pm 17:53 Cloudy 78 25.6 58 14.4 50 50 SSE 16 26 29.82 1010 10 16 0.00 0.00
6:53 pm 18:53 Cloudy 78 25.6 59 15 52 52 S 15 24 29.80 1009 10 16 0.00 0.00
7:53 pm 19:53 Cloudy 77 25 60 15.6 56 56 SSE 15 24 29.76 1008 10 16 0.00 0.00
8:53 pm 20:53 Cloudy 77 25 60 15.6 56 56 S 16 26 29.74 1007 10 16 0.00 0.00
9:53 pm 21:53 Cloudy 75 23.9 61 16.1 62 62 S 18 30 29.74 1007 10 16 0.00 0.00
10:53 pm 22:53 Cloudy 74 23.3 61 16.1 64 64 S 17 28 29.71 1006 10 16 0.00 0.00
11:42 pm 23:42 Cloudy with Thunderstorms 72 22 63 17 73 73 S 12 19 29.68 1005 7 11 0.00 0.00
11:49 pm 23:49 Cloudy with Thunderstorms 72 22 64 18 78 78 S 9 15 29.68 1005 2 3 0.02 0.51
11:53 pm 23:53 Cloudy with Strong Thunderstorms 69 20.6 64 17.8 84 84 SSW 7 11 29.70 1006 1 2 0.14 3.56
11:56 pm 23:56 Cloudy with Strong Thunderstorms 68 20 64 18 88 88 VRB 5 7 29.68 1005 1 1 0.00 0.00

Powered by AerisWeather